User: anonymous   Login
Location: Unspecified
(0.0000°N, 0.0000°E)
Time: 07:55:43
(UTC+00:00)
Language:

NOSS 2-2 (D) - Orbit

View from above orbital plane
View from above orbital plane
View from above satellite
View from above satellite

Ground track
Ground track

The orbit data is extracted from the following two-line orbital elements,

1 21808U 91076D   17141.90861511 0.00000050  00000-0  16464-4 0    00
2 21808  63.3480 168.1120 0745000  25.0012 334.9988 13.41113248    02
Epoch (UTC): 21 May 2017 21:48:24
Eccentricity: 0.0745000
inclination: 63.3480°
perigee height: 547 km
apogee height: 1662 km
right ascension of ascending node: 168.1120°
argument of perigee: 25.0012°
revolutions per day: 13.41113248
mean anomaly at epoch: 334.9988°
orbit number at epoch: 0

The dashed part of the orbit path shows where the satellite is in the earth's shadow,  

DLR